Weather WX

World > North America > United States > Ohio

Sharpsburg, Ohio Regional Weather

Lat: 39.44N, Lon: 81.91W
Wx Zone: OHZ075
Feedback

Sharpsburg, OH Regional Weather

Expires:201906260200;;080139
ASUS41 KCLE 260112
RWRCLE
OHIO REGIONAL WEATHER ROUNDUP
NATIONAL WEATHER SERVICE WILMINGTON, OH
900 PM EDT TUE JUN 25 2019

NOTE: "FAIR" INDICATES FEW OR NO CLOUDS BELOW 12,000 FEET WITH NO
SIGNIFICANT WEATHER AND/OR OBSTRUCTIONS TO VISIBILITY.


OHZ036-037-039>041-045>050-054>059-063>069-073>076-082>088-260200-
  CENTRAL AND SOUTHEAST OHIO
  
CITY           SKY/WX    TMP DP  RH WIND       PRES   REMARKS
COLUMBUS       FAIR      79  56  45 SW13      29.99R                  
OSU AIRPORT    FAIR      78  58  49 SW10      29.99R                  
BOLTON FIELD   FAIR      76  60  59 SW9       30.01R                  
RICKENBACK AFB FAIR      74  61  62 SW6       30.00R                  
NEWARK         FAIR      77  61  57 SW6       29.99R                  
MARION         FAIR      79  57  46 SW7       29.98R                  
LANCASTER      FAIR      75  60  59 SW5       30.00S                  
ZANESVILLE     FAIR      76  60  57 SW3       30.00R                  
NEW PHILLY     FAIR      73  61  65 CALM      29.99R                  
$$
  

SKY/WX - Weather  TMP - Temperature  DP - Dew Point  RH - Relative Humidity
WIND - Wind Direction/Speed PRES - Barometric Pressure VSB - Visibility
WCI - Wind Chill Index E13G22 Wind - East Wind 13 mph/Gusts of 22 mph